Карточка аэропорта UHPP

Внимание!
Информация на этой странице в стадии наполнения.
Если вы не увидели какой-то информации, или заметили неточность - пожалуйста сообщите нам!
Спасибо!
Команда RU-STAFF
Название аэропортаЕлизово
Название аэропорта (англ.)Yelizovo
Превышение131 ft. (39.9 m.)
Координаты53°10.2', 158°27.6'
Высота перехода2400m
Эшелон переходаQFE > 759 mmHg - FL090; 729 mmHg < QFE < 759 mmHg - FL100; QFE < 729 mmHg - FL110
Коды ответчика6630-6657
Зона ОрВДМагадан РПИ (UHMM)
Данные METARUHPP 122130Z 17002MPS 9999 FEW020 16/09 Q1013 R34L/CLRD60 NOSIG RMK QFE756/1008
Проноз погоды (TAF)UHPP 121932Z 1221/1403 36003G10MPS 9999 BKN030CB BECMG 1300/1302 16005G12MPS TEMPO 1309/1321 1000 -SHRA BR VV003
NOTAMshow/hide NOTAM
AWOS   TABLE

Информация о ВПП

ВПП Длина ВПП (м.) Покрытие Курс ВПП Частота ILS
34L2500Бетон344108.7
16R2500Бетон164109.9

Диспетчерские позиции

Позывной Наименование органа УВД Частота
UHPP_ATISПетропавловск - АТИС126.800
UHPP_GNDПетропавловск - Руление127.000
UHPP_R_APPПетропавловск - Круг119.400
UHPP_TWRПетропавловск - Старт118.100



Спутниковое изображение